Probability
0 0 0 0 0 0 0 0 0 0 0 0 0 0 0 0 0 0 0 0 0 0 0 0 0 0 0 0 0 0 0 0 0 0 0 0 0 0 0 0 0 0 0 0
0 0 0 0 0 0 0 0 0 0 0 0 0 0 0 0 0 0 0 0 0 0 0 0 0 0 0 0 0 0 0 0 0 0 0 0 0 0 0 0 0 0 0 0
0 0 0 0 0 0 0 0 0 0 0 0 0 0 0 0 0 0 0 0 0 0 0 0 0 0 0 0 0 0 0 0 0 0 0 0 0 0 0 0 0 0 0 0
0 0 0 0 0 0 0 0 0 0 0 0 0 0 0 0 0 0 0 0 0 0 0 0 0 0 0 0 0 0 0 0 0 0 0 0 0 0 0 0 0 0 0 0
0 0 0 0 0 0 0 0 0 0 0 0 0 0 0 0 0 0 0 0 0 0 0 0 0 0 0 0 0 0 0 0 0 0 0 0 0 0 0 0 0 0 0 0
0 0 0 0 0 0 0 0 0 0 0 0 0 0 0 0 0 0 0 0 0 0 0 0 0 0 0 0 0 0 0 0 0 0 0 0 0 0 0 0 0 0 0 1
0 0 0 0 0 0 0 0 0 0 0 0 0 0 0 0 0 0 0 0 0 0 0 0 0 0 0 0 0 0 0 0 0 0 0 0 0 0 0 0 0 0 0 1
0 0 0 0 0 0 0 0 0 0 0 0 0 0 0 0 0 0 0 0 0 0 0 0 0 0 0 0 0 0 0 0 0 0 0 0 0 0 0 0 0 0 0 1
0 0 0 0 0 0 0 0 0 0 0 0 0 0 0 0 0 0 0 0 0 0 0 0 0 0 0 0 0 0 0 0 0 0 0 0 0 0 0 0 0 0 0 0
0 0 0 0 0 0 0 0 0 0 0 0 0 0 0 0 0 0 0 0 0 0 0 0 0 0 0 0 0 0 0 0 0 0 0 0 0 0 0 0 0 0 0 0
0 0 0 0 0 0 0 0 0 0 0 0 0 0 0 0 0 0 0 0 0 0 0 0 0 0 0 0 0 0 0 0 0 0 0 0 0 0 0 0 0 0 0 0
0 0 0 0 0 0 0 0 0 0 0 0 0 0 0 0 0 0 0 0 0 0 0 0 0 0 0 0 0 0 0 0 0 0 0 0 0 0 0 0 0 0 0 0
0 0 0 0 0 0 0 0 0 0 0 0 0 0 0 0 0 0 0 0 0 0 0 0 0 0 0 0 0 0 0 0 0 0 0 0 0 0 0 0 0 0 0 0
0 0 0 0 0 0 0 0 0 0 0 0 0 0 0 0 0 0 0 0 0 0 0 0 0 0 0 0 0 0 0 0 0 0 0 0 0 0 0 0 0 0 0 0
0 0 0 0 0 0 0 0 0 0 0 0 0 0 0 0 0 0 0 0 0 0 0 0 0 0 0 0 0 0 0 0 0 0 0 0 0 0 0 0 0 0 0 0
0 0 0 0 0 0 0 0 0 0 0 0 0 0 0 0 0 0 0 0 0 0 0 0 0 0 0 0 0 0 0 0 0 0 0 0 0 0 0 0 0 0 0 0
0 0 0 0 0 0 0 0 0 0 0 0 0 0 0 0 0 0 0 0 0 0 0 0 0 0 0 0 0 0 0 0 0 0 0 0 0 0 0 0 0 0 0 0
0 0 0 0 0 0 0 0 0 0 0 0 0 0 0 0 0 0 0 0 0 0 0 0 0 0 0 0 0 0 0 0 0 0 0 0 0 0 0 0 0 0 0 0
0 0 0 0 0 0 0 0 0 0 0 0 0 0 0 0 0 0 0 0 0 0 0 0 0 0 0 0 0 0 0 0 0 0 0 0 0 0 0 0 0 0 0 0
0 0 0 0 0 0 0 0 0 0 0 0 0 0 0 0 0 0 0 0 0 0 0 0 0 0 0 0 0 0 0 0 0 0 0 0 0 0 0 0 0 0 0 0
0 0 0 0 0 0 0 0 0 0 0 0 0 0 0 0 0 0 0 0 0 0 0 0 0 0 0 0 0 0 0 0 0 0 0 0 0 0 0 0 0 0 0 0
0 0 0 0 0 0 0 0 0 0 0 0 0 0 0 0 0 0 0 0 0 0 0 0 0 0 0 0 0 0 0 0 0 0 0 0 0 0 0 0 0 0 0 0
0 0 0 0 0 0 0 0 0 0 0 0 0 0 0 0 0 0 0 0 0 0 0 0 0 0 0 0 0 0 0 0 0 0 0 0 0 0 0 0 0 0 0 0
0 0 0 0 0 0 0 0 0 0 0 0 0 0 0 0 0 0 0 0 0 0 0 0 0 0 0 0 0 0 0 0 0 0 0 0 0 0 0 0 0 0 0 0
0 0 0 0 0 0 0 0 0 0 0 0 0 0 0 0 0 0 0 0 0 0 0 0 0 0 0 0 0 0 0 0 0 0 0 0 0 0 0 0 0 0 0 0
0 0 0 0 0 0 0 0 0 0 0 0 0 0 0 0 0 0 0 0 0 0 0 0 0 0 0 0 0 0 0 0 0 0 0 0 0 0 0 0 0 0 0 0
Wind_Speed
3 4 2 3 4 3 4 3 2 3 1 1 5 7 7 4 2 2 2 1 1 2 2 3 5 5 5 5 5 5 5 5 4 3 3 3 2 2 2 2 3 3 3 3
4 1 2 2 2 1 2 2 1 2 1 1 3 7 5 3 2 3 2 2 1 2 4 5 5 6 5 6 6 6 5 5 4 3 3 2 3 2 2 2 2 3 3 3
3 2 1 2 2 2 0 3 2 1 3 2 2 5 3 2 0 1 1 1 1 1 3 5 6 5 6 6 6 6 6 6 5 4 3 2 2 2 2 2 2 3 3 3
2 1 2 2 1 2 1 2 2 1 1 3 0 4 6 3 1 0 0 0 1 2 2 3 5 6 6 6 6 6 6 6 5 4 3 2 2 2 3 2 2 3 2 2
1 1 2 1 0 1 2 1 1 1 1 2 1 2 7 2 3 3 3 2 1 2 2 3 4 5 5 6 6 6 6 6 5 4 3 2 3 3 3 2 2 2 2 2
0 0 1 1 0 1 0 2 2 2 2 2 4 4 7 3 5 4 3 3 2 2 2 3 4 4 5 6 6 5 6 6 5 4 4 3 3 3 3 2 2 2 2 2
3 2 1 1 1 3 3 4 3 3 2 5 2 4 8 5 4 5 4 4 3 2 2 3 4 5 6 7 7 6 6 6 6 4 4 3 3 3 3 3 2 2 2 2
2 2 2 0 1 1 1 3 4 3 3 4 2 5 6 3 2 2 3 3 1 1 2 3 4 4 5 7 7 6 6 6 6 5 4 3 3 2 2 3 2 2 2 2
1 2 2 1 0 3 2 1 3 3 1 3 5 5 5 1 1 1 1 2 1 2 3 3 3 4 5 6 6 6 6 6 5 5 4 4 3 3 3 2 2 2 2 2
2 1 2 1 1 1 2 3 3 2 1 3 5 5 4 4 4 3 2 2 2 3 3 3 3 3 4 5 5 6 5 5 5 5 4 4 4 3 2 1 2 2 3 2
1 1 3 1 2 3 2 2 2 2 2 2 4 7 4 5 5 4 4 3 3 3 3 3 2 3 3 4 5 5 5 5 5 5 4 4 3 3 2 2 2 2 2 2
1 2 2 4 3 2 3 4 4 3 3 3 3 9 3 3 3 3 3 3 3 3 3 2 2 2 3 4 5 5 5 6 5 5 4 4 4 3 3 3 3 2 2 2
1 2 2 4 2 1 2 3 4 3 2 3 4 9 2 1 1 2 3 3 3 3 2 1 2 2 3 4 4 5 5 5 5 5 4 4 4 4 3 3 3 3 2 2
2 2 4 5 4 3 3 4 4 4 4 4 8 9 6 4 4 4 4 4 3 3 2 2 2 3 3 3 3 4 4 5 5 4 4 4 4 4 3 3 3 3 2 2
2 2 4 7 7 5 7 7 7 9 8 8 8 8 10 6 6 6 5 4 3 3 3 3 3 3 3 3 3 3 4 4 4 4 5 4 4 4 3 3 3 3 3 3
1 2 2 5 4 5 7 9 9 10 9 10 9 11 8 5 4 5 5 5 5 5 5 4 4 3 3 3 3 3 3 4 4 4 4 4 4 4 3 3 3 3 3 3
1 1 1 4 5 4 7 8 8 6 6 7 10 10 4 4 6 6 6 6 6 6 5 5 4 4 3 3 2 2 3 3 3 4 4 5 4 4 4 3 4 4 3 3
3 2 1 3 3 5 7 1 5 6 6 7 7 6 5 7 7 6 5 5 6 5 5 5 4 4 3 2 2 2 2 2 2 3 4 4 4 4 4 4 4 3 3 3
5 4 1 1 3 8 7 3 4 4 6 6 8 7 5 3 2 4 4 5 6 6 6 5 5 4 3 2 2 1 1 2 2 3 3 4 4 4 4 4 4 3 3 3
2 3 2 2 3 7 6 1 2 2 5 4 5 5 3 2 1 5 3 3 4 4 4 4 3 3 3 3 2 1 2 2 3 3 4 3 3 3 4 4 3 3 3 3
2 2 4 5 6 10 6 2 3 3 7 2 4 4 5 6 7 5 3 3 3 4 4 3 3 3 4 3 2 2 2 3 4 3 3 3 3 3 3 3 3 3 3 3
8 6 7 6 6 11 4 5 7 8 3 2 3 4 5 6 5 4 3 4 3 3 3 3 3 4 3 3 3 3 4 4 3 2 2 3 3 2 2 2 3 3 3 3
8 10 7 10 11 6 5 7 5 3 4 4 4 4 5 5 5 4 4 4 4 4 4 3 4 3 3 4 4 5 5 3 2 2 3 2 2 2 2 2 2 3 2 2
6 5 5 7 10 8 6 6 5 5 6 5 5 5 4 5 5 5 4 4 4 4 4 3 3 3 4 4 5 5 4 3 2 3 3 2 2 2 2 2 2 2 2 2
8 5 5 8 9 5 7 8 8 7 5 5 5 5 5 5 5 5 5 5 4 4 3 3 4 5 5 4 4 4 3 3 3 3 3 3 2 2 2 2 2 3 3 3
9 10 9 11 9 7 7 5 5 5 6 6 5 4 4 5 6 5 5 5 4 4 3 3 4 4 4 3 4 4 3 3 3 3 3 2 2 2 2 2 4 5 5 6
Wind_Direction
70 77 137 179 168 162 164 162 209 248 231 243 240 255 267 259 232 239 255 273 301 312 324 352 357 353 350 347 346 340 333 326 327 324 317 304 292 290 288 276 276 273 270 258
64 67 213 177 173 147 146 154 222 293 298 254 262 272 269 249 214 205 208 223 268 345 0 1 357 357 355 348 344 339 334 328 324 311 296 279 277 269 264 266 283 289 279 266
122 196 187 136 129 110 130 185 193 247 339 353 343 307 288 282 132 87 102 133 92 22 353 347 348 347 347 344 336 331 327 324 320 315 310 311 303 311 302 302 302 298 287 272
84 17 93 97 111 119 250 209 183 197 19 299 62 292 278 265 285 259 356 45 347 343 344 335 335 336 336 328 323 321 321 321 318 319 320 317 312 293 284 286 283 292 291 291
79 107 96 118 226 162 220 245 219 225 201 297 244 221 279 266 253 255 246 244 274 290 308 318 321 323 326 324 323 322 321 321 322 323 315 304 291 273 276 284 293 304 315 305
58 318 140 181 282 190 195 39 34 50 74 280 221 188 274 245 230 246 242 234 246 276 310 319 322 326 327 328 329 329 331 330 328 329 322 320 302 295 297 298 294 301 296 290
6 347 336 67 41 13 62 76 41 2 344 258 214 196 251 248 232 216 221 234 241 273 308 320 327 332 333 333 332 333 337 335 333 329 327 328 318 303 292 289 284 282 279 281
56 313 289 264 170 175 151 129 148 194 239 284 289 233 250 252 242 211 201 204 212 282 299 305 314 323 327 326 329 333 337 334 335 335 330 325 327 317 304 298 294 289 286 284
130 273 298 262 162 142 142 162 162 139 244 278 273 276 290 226 284 247 207 188 232 275 286 295 313 324 325 326 328 330 333 334 336 335 332 336 334 322 314 308 301 301 294 289
154 254 286 292 59 33 150 148 110 128 226 279 286 268 250 240 249 255 245 234 254 272 284 296 310 321 324 324 329 332 330 331 329 332 332 337 326 318 318 328 319 300 296 293
111 150 311 337 205 195 165 171 155 160 184 204 283 273 231 218 220 227 235 231 233 249 266 277 297 314 321 329 334 334 336 340 340 340 339 338 331 331 340 340 325 310 314 319
136 126 267 263 263 205 188 194 162 171 233 206 237 269 273 239 229 217 229 239 238 237 250 261 289 317 329 331 333 333 339 342 337 336 344 353 353 355 357 344 334 332 333 324
143 119 9 341 328 283 231 212 183 160 157 196 221 264 309 332 283 238 231 242 250 251 259 275 293 303 311 318 327 328 334 336 337 343 352 359 358 358 350 347 345 347 345 342
122 156 189 216 229 205 236 228 194 167 194 225 231 255 278 280 272 268 250 239 240 243 244 254 272 285 299 312 323 328 331 333 339 348 356 360 353 348 345 345 345 346 346 341
106 222 244 254 257 242 240 238 216 209 211 219 243 246 257 250 249 247 245 244 237 243 244 246 258 274 293 309 318 326 332 337 343 353 357 353 348 350 355 353 350 353 356 352
115 240 284 283 264 249 255 248 228 228 227 237 258 271 260 249 240 235 236 232 237 245 243 242 250 258 271 286 302 317 329 334 346 355 352 349 354 353 355 355 358 5 2 358
224 205 303 283 308 324 271 240 206 205 212 205 231 246 261 260 252 237 229 227 233 242 241 237 240 242 250 259 272 293 308 328 346 351 350 350 352 352 349 356 8 3 354 356
177 168 209 288 345 256 246 227 185 200 232 218 232 249 239 241 252 239 220 218 236 240 237 237 234 238 245 250 271 286 309 325 334 340 344 345 348 347 351 1 1 349 344 348
177 166 195 239 278 279 288 252 182 192 260 225 228 251 257 271 310 279 235 221 225 227 229 229 224 219 222 233 244 272 308 318 328 328 327 332 339 343 349 353 348 344 350 355
130 142 167 198 238 252 254 229 148 115 277 241 209 232 229 141 242 261 246 240 234 230 221 220 216 203 211 228 210 221 276 301 299 300 307 316 331 338 338 337 338 342 350 350
160 181 200 212 239 263 254 203 123 182 250 234 203 216 196 200 221 249 260 245 232 225 220 209 203 209 219 214 197 224 256 270 277 287 300 312 322 327 329 334 335 338 343 346
186 186 200 188 216 253 218 149 188 221 240 215 217 219 219 233 250 255 248 247 245 238 225 209 210 229 227 205 199 231 251 261 274 279 286 300 308 313 328 332 331 331 335 338
206 198 192 198 218 238 194 201 218 202 218 228 225 234 226 237 246 248 247 248 246 237 231 219 216 235 240 216 204 228 251 256 257 262 266 279 300 311 312 311 318 324 327 322
249 202 207 247 256 249 238 238 247 233 230 238 234 235 220 230 243 248 248 250 249 243 233 222 218 236 251 240 227 231 245 239 236 250 262 265 274 294 304 297 291 297 297 299
231 198 217 250 264 275 256 237 240 246 244 245 244 229 221 224 240 237 241 246 245 243 236 219 222 234 246 248 246 243 237 220 232 249 260 267 263 269 284 293 279 277 266 271
207 199 202 234 226 211 239 229 219 226 237 236 233 241 236 220 233 239 241 240 239 239 231 229 233 238 245 243 249 247 232 216 222 243 253 258 268 270 271 287 304 295 289 295